This is the latest recevied weather packets stored in our database for station/object DB0RV-13. If no packets are shown the sender has not sent any weather packets the latest 10 day(s).
| Time | Temp. | Humidity | Pressure | Rain* | Wind** | Luminosity | Snow |
|---|---|---|---|---|---|---|---|
| 1777726502 | 22.78° C | 32% | 1019.1 hPa | - | - | - | - |
| 1777726202 | 22.78° C | 31% | 1019.1 hPa | - | - | - | - |
| 1777725902 | 22.22° C | 31% | 1019.2 hPa | - | - | - | - |
| 1777725602 | 21.67° C | 33% | 1019.3 hPa | - | - | - | - |
| 1777725303 | 21.67° C | 35% | 1019.4 hPa | - | - | - | - |
| 1777725002 | 22.22° C | 34% | 1019.3 hPa | - | - | - | - |
| 1777724714 | 21.67° C | 34% | 1019.4 hPa | - | - | - | - |
| 1777724402 | 21.67° C | 32% | 1019.5 hPa | - | - | - | - |
| 1777724103 | 22.22° C | 32% | 1019.6 hPa | - | - | - | - |
| 1777723802 | 21.67° C | 34% | 1019.8 hPa | - | - | - | - |
| 1777723502 | 21.67° C | 36% | 1019.9 hPa | - | - | - | - |
| 1777723203 | 21.67° C | 35% | 1019.9 hPa | - | - | - | - |
| 1777722902 | 21.11° C | 36% | 1019.8 hPa | - | - | - | - |
| 1777722302 | 21.11° C | 38% | 1020 hPa | - | - | - | - |
| 1777722016 | 21.11° C | 38% | 1020.2 hPa | - | - | - | - |
| 1777721705 | 21.67° C | 39% | 1020.2 hPa | - | - | - | - |
| 1777721401 | 20.56° C | 40% | 1020.4 hPa | - | - | - | - |
| 1777721102 | 21.11° C | 38% | 1020.4 hPa | - | - | - | - |
| 1777720803 | 21.67° C | 40% | 1020.4 hPa | - | - | - | - |
| 1777720502 | 20.56° C | 40% | 1020.4 hPa | - | - | - | - |
| 1777720207 | 20.56° C | 39% | 1020.5 hPa | - | - | - | - |
| 1777719901 | 20° C | 41% | 1020.6 hPa | - | - | - | - |
| 1777719602 | 20° C | 43% | 1020.6 hPa | - | - | - | - |
| 1777719302 | 20° C | 42% | 1020.6 hPa | - | - | - | - |
| 1777719002 | 20° C | 44% | 1020.6 hPa | - | - | - | - |
* Rain since midnight (hover to see other rain measurements)
** Current wind speed in m/s (hover to see current wind gust speed)